FW0709 Weather Reports


Display with metric or nautical units.
time (UTC)temp
F
wind
direction
speed
MPH
gust
MPH
rain 1hr
in
rain 24hr
in
rain mn
in
humidity
%
barometer
mb
20260906081537 52 25 6.0 16.0 0.00 0.04 0.01 70 1006.8
20260906080033 51 328 4.0 18.0 0.00 0.04 0.01 70 1006.8
20260906074533 51 346 10.0 19.0 0.00 0.04 0.01 71 1006.6
20260906073027 50 343 9.0 18.0 0.00 0.04 0.01 72 1006.3
20260906071523 51 317 7.0 16.0 0.00 0.04 0.01 74 1006.1
20260906070021 51 332 6.0 14.0 0.00 0.04 0.01 74 1006.0
20260906064517 50 17 5.0 16.0 0.00 0.04 0.01 75 1005.9
20260906063013 48 300 4.0 16.0 0.00 0.04 0.01 80 1005.7
20260906061510 47 346 7.0 12.0 0.00 0.04 0.01 83 1005.5
20260906060008 47 329 3.0 14.0 0.00 0.04 0.01 84 1005.3
20260906054505 46 5 4.0 12.0 0.00 0.04 0.01 87 1005.0
20260906053003 45 315 4.0 12.0 0.00 0.04 0.01 91 1005.0
20260906051605 44 315 2.0 8.0 0.00 0.04 0.01 93 1004.8
20260906050128 43 336 2.0 5.0 0.00 0.04 0.01 93 1004.7
20260906044556 42 319 2.0 5.0 0.00 0.06 0.01 93 1004.5
20260906043105 43 311 2.0 5.0 0.00 0.06 0.01 92 1004.4
20260906041548 43 311 0.0 3.0 0.00 0.06 0.01 92 1004.2
20260906040048 43 311 0.0 3.0 0.00 0.06 0.01 93 1004.1
20260906034545 43 311 2.0 6.0 0.00 0.06 0.01 93 1003.9
20260906033045 43 319 1.0 4.0 0.00 0.06 0.01 93 1003.8
20260906031544 43 326 1.0 4.0 0.00 0.06 0.01 93 1003.6
20260906030038 43 326 0.0 3.0 0.00 0.06 0.01 93 1003.5
20260906024537 43 327 1.0 5.0 0.00 0.06 0.01 93 1003.4
20260906023036 43 303 2.0 4.0 0.00 0.06 0.01 93 1003.3
20260906021530 44 304 1.0 5.0 0.00 0.06 0.01 93 1003.2
20260906020029 45 304 0.0 3.0 0.00 0.06 0.01 93 1003.2
20260906014531 45 304 2.0 5.0 0.00 0.06 0.01 94 1003.2
20260906013023 46 333 3.0 6.0 0.00 0.06 0.01 94 1002.9
20260906011519 46 328 3.0 9.0 0.00 0.06 0.01 95 1002.8
20260906010017 46 307 3.0 5.0 0.01 0.06 0.01 94 1002.6
20260906004516 46 308 0.0 4.0 0.01 0.06 0.01 94 1002.3
20260906003015 46 308 2.0 4.0 0.01 0.06 0.01 94 1002.3
20260906001512 46 308 0.0 3.0 0.01 0.06 0.01 94 1002.3
20260906000012 45 308 1.0 3.0 0.00 0.05 0.00 93 1002.2
20260905234509 46 308 1.0 5.0 0.00 0.05 0.00 93 1002.2
20260905233015 46 308 0.0 3.0 0.00 0.05 0.00 93 1002.1
20260905231504 46 308 1.0 4.0 0.00 0.05 0.00 93 1002.0
20260905230001 47 308 1.0 4.0 0.00 0.05 0.00 93 1001.9
20260905224609 47 308 0.0 4.0 0.00 0.05 0.00 93 1001.9
20260905223059 47 308 1.0 4.0 0.00 0.05 0.00 93 1001.8
20260905221556 47 312 0.0 4.0 0.00 0.05 0.00 93 1001.8
20260905220053 47 318 2.0 6.0 0.00 0.05 0.00 93 1001.7
20260905214603 47 339 0.0 6.0 0.00 0.05 0.00 93 1001.4
20260905213048 47 326 1.0 4.0 0.00 0.05 0.00 93 1001.4
20260905211542 48 323 1.0 5.0 0.00 0.05 0.00 93 1001.3
20260905210044 48 329 2.0 5.0 0.00 0.05 0.00 93 1001.2
20260905204537 47 320 0.0 3.0 0.00 0.05 0.05 93 1001.1
20260905203035 47 320 0.0 3.0 0.00 0.05 0.05 93 1001.0
20260905201538 48 319 1.0 4.0 0.00 0.05 0.05 93 1000.8
20260905200041 48 319 2.0 4.0 0.00 0.05 0.05 93 1000.7
20260905194530 48 329 1.0 5.0 0.00 0.05 0.05 92 1000.6
20260905193031 48 338 3.0 8.0 0.00 0.05 0.05 92 1000.4
20260905191528 48 329 3.0 9.0 0.00 0.05 0.05 92 1000.3
20260905190026 48 316 1.0 6.0 0.00 0.05 0.05 92 1000.3
20260905184534 48 330 1.0 5.0 0.00 0.05 0.05 92 1000.1
20260905183028 48 324 1.0 4.0 0.00 0.05 0.05 91 1000.1
20260905181522 48 327 2.0 9.0 0.00 0.05 0.05 90 999.9
20260905180020 49 327 1.0 6.0 0.00 0.05 0.05 90 999.8
20260905174529 49 329 1.0 6.0 0.00 0.05 0.05 89 999.6
20260905173019 49 327 2.0 9.0 0.00 0.05 0.05 88 999.5
20260905171516 50 323 4.0 8.0 0.00 0.05 0.05 88 999.4
20260905170014 50 314 3.0 9.0 0.00 0.05 0.05 87 999.2
20260905164512 51 343 5.0 10.0 0.00 0.05 0.05 86 999.0
20260905163010 51 326 8.0 14.0 0.00 0.05 0.05 85 998.8
20260905161508 52 326 5.0 13.0 0.00 0.05 0.05 85 998.7
20260905160009 52 317 7.0 12.0 0.00 0.05 0.05 86 998.6
20260905154505 52 24 4.0 10.0 0.00 0.05 0.05 87 998.4
20260905153008 51 344 7.0 16.0 0.01 0.05 0.05 86 998.3
20260905151502 52 360 6.0 15.0 0.01 0.05 0.05 85 998.1
20260905150002 53 321 4.0 13.0 0.02 0.05 0.05 87 998.0
20260905144559 53 342 3.0 10.0 0.02 0.05 0.05 88 997.8
20260905143058 53 344 5.0 15.0 0.02 0.04 0.04 87 997.6
20260905141611 53 19 4.0 12.0 0.02 0.04 0.04 89 997.4
20260905134606 54 355 5.0 14.0 0.00 0.02 0.02 84 997.3
20260905133057 55 343 7.0 15.0 0.00 0.02 0.02 80 996.8
20260905131556 56 355 4.0 18.0 0.00 0.02 0.02 80 996.8
20260905130052 56 38 7.0 21.0 0.00 0.02 0.02 79 996.7
20260905124547 55 313 6.0 16.0 0.00 0.02 0.02 83 996.4
20260905123045 55 346 5.0 25.0 0.00 0.02 0.02 82 996.3
20260905121543 56 309 10.0 16.0 0.00 0.02 0.02 80 996.0
20260905120041 57 329 11.0 17.0 0.00 0.02 0.02 81 995.9
20260905114613 57 313 5.0 14.0 0.00 0.02 0.02 81 995.8
20260905113039 58 334 9.0 16.0 0.00 0.02 0.02 79 995.7
20260905111542 58 331 5.0 13.0 0.00 0.02 0.02 78 995.5
20260905110034 56 325 6.0 11.0 0.00 0.02 0.02 84 995.2
20260905104534 56 333 5.0 15.0 0.00 0.02 0.02 83 995.1
20260905103035 57 321 6.0 16.0 0.00 0.02 0.02 82 994.9
20260905101530 58 311 8.0 15.0 0.00 0.02 0.02 79 994.8
20260905100028 58 12 5.0 14.0 0.00 0.02 0.02 81 994.5
20260905094523 57 47 2.0 10.0 0.00 0.02 0.02 88 994.3
20260905093022 56 350 5.0 15.0 0.00 0.02 0.02 89 994.3
20260905091518 55 319 2.0 16.0 0.00 0.02 0.02 90 994.2
20260905090017 56 311 7.0 15.0 0.01 0.02 0.02 89 994.1
20260905084517 55 304 2.0 12.0 0.01 0.02 0.02 92 993.9
20260905083012 54 9 3.0 10.0 0.01 0.02 0.02 93 993.9